EW9532 Weather Reports


Display with metric or nautical units.
time (UTC)temp
F
wind
direction
speed
MPH
gust
MPH
rain 1hr
in
rain 24hr
in
rain mn
in
humidity
%
barometer
mb
20260510174555 89 333 0.0 4.0 0.00 0.00 0.00 72 1013.3
20260510174502 90 326 0.0 4.0 0.00 0.00 0.00 74 1013.1
20260510174002 89 100 0.0 4.0 0.00 0.00 0.00 74 1013.1
20260510173721 89 52 0.0 0.0 0.00 0.00 0.00 75 1013.2
20260510173053 88 0 0.0 3.0 0.00 0.00 0.00 76 1013.4
20260510173001 88 287 0.0 2.0 0.00 0.00 0.00 76 1013.2
20260510172501 88 154 0.0 2.0 0.00 0.00 0.00 75 1013.2
20260510172000 87 294 0.0 1.0 0.00 0.00 0.00 77 1013.4
20260510171745 87 227 0.0 1.0 0.00 0.00 0.00 78 1013.4
20260510171738 86 186 0.0 4.0 0.00 0.00 0.00 79 1013.5
20260510171557 86 0 0.0 3.0 0.00 0.00 0.00 78 1013.6
20260510170515 86 32 0.0 4.0 0.00 0.00 0.00 78 1013.3
20260510170059 86 0 0.0 4.0 0.00 0.00 0.00 78 1013.5
20260510170003 86 177 0.0 4.0 0.00 0.00 0.00 78 1013.4
20260510165502 86 204 0.0 4.0 0.00 0.00 0.00 77 1013.3
20260510165002 86 334 0.0 4.0 0.00 0.00 0.00 76 1013.2
20260510164603 86 0 0.0 3.0 0.00 0.00 0.00 77 1013.3
20260510164454 86 120 0.0 3.0 0.00 0.00 0.00 79 1013.0
20260510163955 86 90 0.0 4.0 0.00 0.00 0.00 79 1013.0
20260510163452 86 262 1.0 4.0 0.00 0.00 0.00 79 1013.1
20260510163216 87 52 0.0 4.0 0.00 0.00 0.00 79 1013.1
20260510163053 86 0 0.0 5.0 0.00 0.00 0.00 77 1013.3
20260510162451 86 18 0.0 4.0 0.00 0.00 0.00 79 1013.0
20260510162220 86 357 0.0 2.0 0.00 0.00 0.00 79 1012.9
20260510161950 86 214 0.0 2.0 0.00 0.00 0.00 80 1013.0
20260510161551 85 214 0.0 2.0 0.00 0.00 0.00 79 1013.1
20260510160939 86 256 0.0 2.0 0.00 0.00 0.00 80 1012.9
20260510160439 85 206 0.0 2.0 0.00 0.00 0.00 80 1012.9
20260510160057 85 0 0.0 3.0 0.00 0.00 0.00 79 1013.1
20260510155935 85 291 0.0 3.0 0.00 0.00 0.00 78 1012.9
20260510155435 86 92 0.0 3.0 0.00 0.00 0.00 80 1012.9
20260510154935 85 119 0.0 1.0 0.00 0.00 0.00 81 1012.8
20260510154602 84 0 0.0 1.0 0.00 0.00 0.00 81 1013.0
20260510154435 84 44 0.0 1.0 0.00 0.00 0.00 83 1012.8
20260510153930 84 241 0.0 1.0 0.00 0.00 0.00 83 1012.9
20260510153429 84 275 0.0 1.0 0.00 0.00 0.00 83 1013.0
20260510153053 83 0 0.0 1.0 0.00 0.00 0.00 83 1013.2
20260510152929 83 193 0.0 1.0 0.00 0.00 0.00 84 1012.8
20260510152429 82 314 0.0 3.0 0.00 0.00 0.00 86 1012.9
20260510151929 82 146 0.0 3.0 0.00 0.00 0.00 86 1012.9
20260510151546 81 0 0.0 3.0 0.00 0.00 0.00 86 1013.3
20260510151429 81 147 0.0 2.0 0.00 0.00 0.00 87 1013.2
20260510150928 81 197 0.0 2.0 0.00 0.00 0.00 87 1013.1
20260510150429 81 188 0.0 1.0 0.00 0.00 0.00 87 1013.1
20260510150045 80 0 0.0 1.0 0.00 0.00 0.00 87 1013.2
20260510145929 81 329 0.0 0.0 0.00 0.00 0.00 87 1013.0
20260510145429 80 329 0.0 2.0 0.00 0.00 0.00 88 1013.1
20260510144929 80 291 0.0 2.0 0.00 0.00 0.00 89 1013.0
20260510144547 79 0 0.0 2.0 0.00 1.88 0.00 89 1013.3
20260510144428 80 352 0.0 1.0 0.00 0.00 0.00 89 1013.0
20260510143929 79 260 0.0 2.0 0.00 0.02 0.00 90 1013.0
20260510143647 79 303 0.0 2.0 0.00 0.06 0.00 90 1013.1
20260510143055 78 0 0.0 3.0 0.00 1.88 0.00 89 1013.3
20260510142929 79 205 0.0 1.0 0.00 0.22 0.00 90 1013.2
20260510142429 79 148 0.0 1.0 0.00 0.53 0.00 90 1013.1
20260510141928 78 236 0.0 1.0 0.00 0.89 0.00 91 1013.2
20260510141551 78 0 0.0 3.0 0.00 1.88 0.00 90 1013.3
20260510141429 78 207 0.0 2.0 0.00 1.20 0.00 91 1013.2
20260510140928 78 204 0.0 2.0 0.00 1.59 0.00 92 1013.2
20260510140429 78 262 0.0 1.0 0.00 1.87 0.00 92 1013.1
20260510140052 77 0 0.0 0.0 0.00 1.88 0.00 92 1013.3
20260510135929 78 50 0.0 0.0 0.00 1.88 0.00 92 1013.0
20260510135429 77 50 0.0 0.0 0.00 1.88 0.00 92 1013.1
20260510134929 77 50 0.0 0.0 0.00 1.88 0.00 92 1012.9
20260510134552 77 0 0.0 4.0 0.00 1.90 0.00 92 1013.1
20260510134429 77 50 0.0 4.0 0.00 1.88 0.00 92 1013.0
20260510133928 77 50 0.0 4.0 0.00 1.90 0.00 92 1012.9
20260510133648 77 236 0.0 0.0 0.00 1.90 0.00 93 1012.9
20260510133052 76 0 0.0 0.0 0.00 1.90 0.00 93 1013.1
20260510132944 76 26 0.0 0.0 0.00 1.90 0.00 94 1012.8
20260510132939 77 236 0.0 0.0 0.00 1.90 0.00 94 1012.9
20260510132932 77 236 0.0 0.0 0.00 1.90 0.00 93 1012.9
20260510131603 76 0 0.0 0.0 0.00 1.90 0.00 94 1013.0
20260510131427 76 26 0.0 0.0 0.00 1.90 0.00 94 1012.7
20260510130912 76 26 0.0 0.0 0.00 1.90 0.00 94 1012.8
20260510130411 76 26 0.0 0.0 0.00 1.90 0.00 94 1012.7
20260510130049 75 0 0.0 0.0 0.00 1.90 0.00 94 1012.9
20260510125907 76 26 0.0 0.0 0.00 1.90 0.00 94 1012.6
20260510125406 76 26 0.0 0.0 0.00 1.90 0.00 95 1012.5
20260510125124 76 26 0.0 0.0 0.00 1.90 0.00 95 1012.4
20260510124608 75 0 0.0 0.0 0.00 1.90 0.00 94 1012.6
20260510124404 76 26 0.0 0.0 0.00 1.90 0.00 95 1012.5
20260510123903 75 26 0.0 0.0 0.00 1.90 0.00 95 1012.3
20260510123624 75 26 0.0 0.0 0.00 1.90 0.00 95 1012.4
20260510123049 75 0 0.0 0.0 0.00 1.90 0.00 94 1012.5
20260510122902 75 26 0.0 0.0 0.00 1.90 0.00 95 1012.3
20260510122402 75 26 0.0 0.0 0.00 1.90 0.00 95 1012.4
20260510121903 75 26 0.0 0.0 0.00 1.90 0.00 95 1012.3
20260510121547 75 0 0.0 0.0 0.00 1.90 0.00 95 1012.4
20260510121402 75 26 0.0 0.0 0.00 1.90 0.00 95 1012.1
20260510120902 75 26 0.0 0.0 0.00 1.90 0.00 95 1012.1
20260510120402 75 26 0.0 0.0 0.00 1.90 0.00 95 1012.0
20260510120047 74 0 0.0 1.0 0.00 1.90 0.00 95 1012.1
20260510115903 75 26 0.0 0.0 0.00 1.90 0.00 95 1011.8
20260510115402 75 338 0.0 0.0 0.00 1.90 0.00 95 1011.7
20260510114903 75 338 0.0 0.0 0.00 1.90 0.00 95 1011.7
20260510114545 74 0 0.0 0.0 0.00 1.98 0.00 94 1011.9
20260510114402 75 338 0.0 0.0 0.00 1.90 0.00 95 1011.7
20260510113900 75 338 0.0 0.0 0.00 1.90 0.00 95 1011.6
20260510113400 75 338 0.0 0.0 0.00 1.91 0.00 95 1011.4
20260510113050 74 0 0.0 0.0 0.00 1.98 0.00 94 1011.6
20260510112902 75 338 0.0 0.0 0.00 1.91 0.00 95 1011.4
20260510112401 75 338 0.0 0.0 0.00 1.94 0.00 95 1011.3
20260510111901 75 338 0.0 0.0 0.00 1.96 0.00 95 1011.4
20260510111603 74 0 0.0 0.0 0.00 1.98 0.00 94 1011.8
20260510111401 75 338 0.0 0.0 0.00 1.97 0.00 94 1011.6
20260510110900 75 338 0.0 0.0 0.00 1.97 0.00 94 1011.4
20260510110401 75 338 0.0 0.0 0.00 1.98 0.00 94 1011.6
20260510110049 74 0 0.0 0.0 0.00 1.98 0.00 94 1011.6
20260510105903 75 338 0.0 0.0 0.00 1.98 0.00 94 1011.4
20260510105403 75 338 0.0 0.0 0.00 1.98 0.00 94 1011.3
20260510104902 75 338 0.0 0.0 0.00 1.98 0.00 94 1011.2
20260510104601 74 0 0.0 0.0 0.00 1.98 0.00 93 1011.6
20260510104402 75 338 0.0 0.0 0.00 1.98 0.00 94 1011.2
20260510104123 75 338 0.0 0.0 0.00 1.98 0.00 94 1011.3
20260510103402 75 338 0.0 0.0 0.00 1.98 0.00 94 1011.3
20260510103046 75 0 0.0 0.0 0.00 1.98 0.00 93 1011.7
20260510102902 75 338 0.0 0.0 0.00 1.98 0.00 94 1011.4
20260510102403 75 338 0.0 0.0 0.00 1.98 0.00 94 1011.2
20260510101903 75 338 0.0 0.0 0.00 1.98 0.00 94 1011.2
20260510101545 75 0 0.0 0.0 0.00 1.98 0.00 93 1011.5
20260510101402 75 338 0.0 0.0 0.00 1.98 0.00 94 1011.2
20260510100902 75 338 0.0 0.0 0.00 1.98 0.00 94 1011.3
20260510100402 75 338 0.0 0.0 0.00 1.98 0.00 94 1011.2
20260510100050 75 0 0.0 0.0 0.00 1.98 0.00 93 1011.4
20260510095903 75 338 0.0 0.0 0.00 1.98 0.00 94 1011.1
20260510095403 75 338 0.0 0.0 0.00 1.98 0.00 94 1011.1
20260510095120 75 338 0.0 0.0 0.00 1.98 0.00 94 1011.1
20260510094550 75 0 0.0 0.0 0.00 1.98 0.00 93 1011.4
20260510094403 75 338 0.0 0.0 0.00 1.98 0.00 94 1011.1
20260510094148 75 338 0.0 0.0 0.00 1.98 0.00 94 1011.1
20260510093403 75 338 0.0 0.0 0.00 1.98 0.00 94 1011.2
20260510093049 75 0 0.0 0.0 0.00 1.98 0.00 94 1011.5
20260510092903 75 338 0.0 0.0 0.00 1.98 0.00 94 1011.2
20260510092403 75 338 0.0 0.0 0.00 1.98 0.00 94 1011.2
20260510092125 75 338 0.0 0.0 0.00 1.98 0.00 94 1011.1
20260510091555 74 0 0.0 0.0 0.00 1.98 0.00 93 1011.4
20260510091400 75 338 0.0 0.0 0.00 1.98 0.00 94 1011.2
20260510090859 75 338 0.0 0.0 0.00 1.98 0.00 93 1011.3
20260510090359 75 338 0.0 0.0 0.00 1.98 0.00 93 1011.3
20260510085855 75 338 0.0 0.0 0.00 1.98 0.00 94 1011.2
20260510085354 75 338 0.0 0.0 0.00 1.98 0.00 93 1011.2
20260510084849 75 338 0.0 0.0 0.00 1.98 0.00 93 1011.2
20260510084554 75 0 0.0 0.0 0.00 1.98 0.00 93 1011.5
20260510084342 75 338 0.0 0.0 0.00 1.98 0.00 93 1011.2
20260510083836 75 338 0.0 0.0 0.00 1.98 0.00 93 1011.3
20260510083336 75 338 0.0 0.0 0.00 1.98 0.00 93 1011.4
20260510083051 75 0 0.0 0.0 0.00 1.98 0.00 93 1011.9
20260510082830 75 338 0.0 0.0 0.00 1.98 0.00 93 1011.6
20260510082329 75 338 0.0 0.0 0.00 1.98 0.00 93 1011.7
20260510081829 75 338 0.0 0.0 0.00 1.98 0.00 93 1011.8
20260510081550 75 0 0.0 0.0 0.00 1.98 0.00 92 1012.1
20260510081329 75 338 0.0 0.0 0.00 1.98 0.00 93 1011.9
20260510080829 75 338 0.0 0.0 0.00 1.98 0.00 93 1012.0
20260510080329 75 338 0.0 0.0 0.00 1.98 0.00 93 1012.1
20260510080058 75 0 0.0 0.0 0.00 1.98 0.00 92 1012.5
20260510075828 76 338 0.0 0.0 0.00 1.98 0.00 93 1012.1
20260510075329 76 338 0.0 0.0 0.00 1.98 0.00 93 1012.2
20260510074830 76 338 0.0 0.0 0.00 1.98 0.00 93 1012.3
20260510074550 75 0 0.0 0.0 0.00 1.98 0.00 92 1012.4
20260510074329 76 338 0.0 0.0 0.00 1.98 0.00 92 1012.4
20260510073829 76 338 0.0 0.0 0.00 1.98 0.00 92 1012.3
20260510073329 76 338 0.0 0.0 0.00 1.98 0.00 92 1012.2
20260510073051 75 0 0.0 0.0 0.00 1.98 0.00 92 1012.5
20260510072828 76 338 0.0 0.0 0.00 1.98 0.00 92 1012.3
20260510072331 76 338 0.0 0.0 0.00 1.98 0.00 92 1012.3
20260510071830 76 338 0.0 1.0 0.00 1.98 0.00 92 1012.3
20260510071545 75 0 0.0 1.0 0.00 1.98 0.00 92 1012.4
20260510071331 76 338 0.0 1.0 0.00 1.98 0.00 92 1012.2
20260510070830 76 142 0.0 1.0 0.00 1.98 0.00 92 1012.2
20260510070329 76 316 0.0 1.0 0.00 1.98 0.00 92 1012.2
20260510070057 75 0 0.0 1.0 0.00 1.98 0.00 92 1012.2
20260510065828 76 289 0.0 1.0 0.00 1.98 0.00 92 1012.0
20260510065329 76 230 0.0 0.0 0.00 1.98 0.00 92 1012.0
20260510064829 76 230 0.0 2.0 0.00 1.98 0.00 92 1012.1
20260510064607 76 0 0.0 3.0 0.00 1.98 0.00 91 1012.3
20260510064329 76 230 0.0 4.0 0.00 1.98 0.00 92 1012.0
20260510063828 76 224 0.0 4.0 0.00 1.98 0.00 92 1012.2
20260510063812 76 100 0.0 0.0 0.00 1.98 0.00 92 1012.1
20260510063052 76 0 0.0 1.0 0.00 1.98 0.00 91 1012.4
20260510062829 76 211 0.0 0.0 0.00 1.98 0.00 92 1012.3
20260510062330 76 205 0.0 0.0 0.00 1.98 0.00 92 1012.2
20260510061830 76 226 0.0 0.0 0.00 1.98 0.00 91 1012.1
20260510061552 76 0 0.0 0.0 0.00 1.98 0.00 91 1012.4
20260510061330 76 226 0.0 0.0 0.00 1.98 0.00 91 1012.3
20260510060831 76 226 0.0 1.0 0.00 1.98 0.00 91 1012.2
20260510060330 77 226 0.0 1.0 0.00 1.98 0.00 91 1012.4
20260510060059 77 300 0.0 0.0 0.00 1.98 0.00 91 1012.2
20260510060055 76 0 0.0 1.0 0.00 1.98 0.00 91 1012.5
20260510055329 77 283 0.0 0.0 0.00 1.98 0.00 91 1012.3
20260510055107 77 283 0.0 0.0 0.00 1.98 0.00 90 1012.4
20260510055026 77 283 0.0 0.0 0.00 1.98 0.00 91 1012.3
20260510054549 76 0 0.0 0.0 0.00 1.98 0.00 90 1012.4
20260510053828 77 283 0.0 0.0 0.00 1.98 0.00 90 1012.4
20260510053329 77 283 0.0 3.0 0.00 1.98 0.00 90 1012.4
20260510053050 77 0 0.0 2.0 0.00 1.98 0.00 89 1012.5
20260510052828 77 235 0.0 3.0 0.00 1.98 0.00 90 1012.5
20260510052330 77 56 0.0 2.0 0.00 1.98 0.00 90 1012.5
20260510051831 77 288 0.0 4.0 0.00 1.98 0.00 90 1012.5
20260510051605 77 0 0.0 4.0 0.00 1.98 0.00 89 1012.5
20260510051330 77 32 0.0 4.0 0.00 1.98 0.00 89 1012.2
20260510050830 77 26 0.0 2.0 0.00 1.98 0.00 89 1012.4
20260510050330 77 79 0.0 2.0 0.00 1.98 0.00 89 1012.3
20260510050055 77 0 0.0 2.0 0.00 1.98 0.00 89 1012.5
20260510045828 77 6 0.0 2.0 0.00 1.98 1.98 89 1012.4
20260510045328 77 250 0.0 0.0 0.00 1.98 1.98 89 1012.4
20260510044828 77 250 0.0 1.0 0.00 1.99 1.98 89 1012.4
20260510044608 77 0 0.0 1.0 0.00 2.00 1.98 88 1012.6
20260510044329 78 250 0.0 1.0 0.00 1.99 1.98 88 1012.3
20260510043829 78 144 0.0 3.0 0.00 2.00 1.98 88 1012.4
20260510043328 78 144 0.0 3.0 0.00 2.00 1.98 88 1012.5
20260510043052 77 0 0.0 0.0 0.00 2.00 1.98 87 1012.6
20260510042828 78 158 0.0 1.0 0.00 2.00 1.98 87 1012.5
20260510042331 78 159 0.0 0.0 0.00 2.00 1.98 87 1012.4
20260510041831 78 159 0.0 0.0 0.00 2.00 1.98 87 1012.5
20260510041617 78 159 0.0 0.0 0.00 2.00 1.98 86 1012.5
20260510041604 78 0 0.0 0.0 0.00 2.00 1.98 86 1012.7
20260510040830 78 72 0.0 0.0 0.00 2.00 1.98 86 1012.5
20260510040554 78 72 0.0 2.0 0.00 2.00 1.98 86 1012.4
20260510040056 78 0 0.0 1.0 0.00 2.00 1.98 85 1012.6
20260510035828 79 72 0.0 2.0 0.00 2.00 1.98 86 1012.5
20260510035329 79 336 0.0 2.0 0.00 2.00 1.98 85 1012.5
20260510034829 79 268 0.0 1.0 0.00 2.00 1.98 85 1012.4
20260510034559 78 0 0.0 2.0 0.00 2.00 1.98 85 1012.5
20260510034329 79 268 0.0 1.0 0.00 2.00 1.98 85 1012.2
20260510033829 79 246 0.0 0.0 0.00 2.00 1.98 85 1012.2
20260510033329 79 246 0.0 0.0 0.00 2.00 1.98 85 1012.0
20260510033054 78 0 0.0 0.0 0.00 2.00 1.98 84 1012.2
20260510033051 79 246 0.0 0.0 0.00 2.00 1.98 84 1012.0
20260510032331 79 246 0.0 1.0 0.00 2.00 1.98 84 1012.0
20260510031830 79 246 0.0 2.0 0.00 2.00 1.98 84 1011.9
20260510031557 78 0 0.0 2.0 0.00 2.00 1.98 83 1012.0
20260510031330 79 205 0.0 2.0 0.00 2.00 1.98 84 1011.8
20260510030831 79 229 0.0 0.0 0.00 2.00 1.98 83 1011.7
20260510030330 79 229 0.0 0.0 0.00 2.00 1.98 83 1011.6
20260510030105 79 0 0.0 1.0 0.00 2.00 1.98 82 1011.8
20260510025829 79 97 0.0 1.0 0.00 2.00 1.98 82 1011.7
20260510025329 79 181 0.0 1.0 0.00 2.00 1.98 82 1011.6
20260510024829 79 330 0.0 0.0 0.00 2.00 1.98 82 1011.3
20260510024553 79 0 0.0 1.0 0.00 2.00 1.98 81 1011.7
20260510024329 80 330 0.0 1.0 0.00 2.00 1.98 81 1011.3
20260510023829 80 247 0.0 4.0 0.00 2.00 1.98 80 1011.2
20260510023328 80 341 0.0 4.0 0.00 2.00 1.98 80 1011.1
20260510023053 80 0 0.0 2.0 0.00 2.00 1.98 79 1011.5
20260510022828 80 146 0.0 1.0 0.00 2.00 1.98 79 1011.0
20260510022539 80 224 0.0 2.0 0.00 2.00 1.98 78 1011.0
20260510022051 80 263 0.0 6.0 0.00 2.00 1.98 78 1010.8
20260510021552 80 0 0.0 6.0 0.00 2.00 1.98 77 1011.0
20260510021312 81 358 0.0 6.0 0.00 2.00 1.98 78 1010.9
20260510020812 81 348 0.0 3.0 0.00 2.00 1.98 77 1010.9
20260510020313 81 201 0.0 5.0 0.00 2.00 1.98 77 1010.7
20260510020051 80 56 0.0 6.0 0.00 2.00 1.98 76 1011.0
20260510015807 81 276 0.0 5.0 0.00 2.00 1.98 77 1010.7
20260510015306 81 60 0.0 3.0 0.00 2.00 1.98 76 1010.5
20260510014802 81 103 0.0 3.0 0.00 2.00 1.98 76 1010.3
20260510014556 81 0 0.0 3.0 0.00 2.00 1.98 75 1010.6
20260510014303 81 76 0.0 2.0 0.00 2.00 1.98 76 1010.2
20260510013805 81 269 0.0 3.0 0.00 2.00 1.98 76 1010.3
20260510013800 81 143 1.0 6.0 0.00 2.00 1.98 76 1010.2
20260510013053 81 56 0.0 6.0 0.00 2.00 1.98 75 1010.5
20260510012814 81 250 2.0 6.0 0.00 2.00 1.98 76 1010.0
20260510012300 81 337 0.0 3.0 0.00 2.00 1.98 76 1010.2
20260510011801 81 215 0.0 3.0 0.00 2.00 1.98 76 1010.2
20260510011549 81 214 0.0 3.0 0.00 2.00 1.98 75 1010.4
20260510011301 82 241 1.0 3.0 0.00 2.00 1.98 76 1010.1
20260510010801 82 194 0.0 6.0 0.00 2.00 1.98 75 1010.0
20260510010301 82 283 2.0 6.0 0.00 2.00 1.98 75 1009.9
20260510010052 81 39 0.0 5.0 0.00 2.00 1.98 74 1010.2
20260510005801 82 233 0.0 5.0 0.00 2.00 1.98 75 1009.9
20260510005301 82 328 1.0 8.0 0.00 2.00 1.98 74 1009.8
20260510004802 82 251 1.0 8.0 0.00 2.00 1.98 74 1009.8
20260510004749 82 205 1.0 8.0 0.00 2.00 1.98 74 1009.8
20260510004547 82 0 0.0 9.0 0.00 2.00 1.98 74 1010.0
20260510003802 83 337 0.0 8.0 0.00 2.00 1.98 74 1009.7
20260510003549 83 349 1.0 5.0 0.00 2.00 1.98 74 1009.7
20260510003057 82 0 0.0 8.0 0.00 2.00 1.98 73 1009.9
20260510002814 83 191 0.0 9.0 0.00 2.00 1.98 74 1009.7
20260510002747 83 300 2.0 9.0 0.00 2.00 1.98 73 1009.6
20260510002033 83 153 2.0 5.0 0.00 2.00 1.98 73 1009.5
20260510001554 83 0 0.0 5.0 0.00 2.00 1.98 72 1009.7
20260510001302 83 42 0.0 6.0 0.00 2.00 1.98 73 1009.3
20260510001020 84 84 0.0 6.0 0.00 2.00 1.98 73 1009.4
20260510000315 84 233 0.0 6.0 0.00 2.00 1.98 72 1009.4
20260510000058 83 0 0.0 5.0 0.00 2.00 1.98 71 1009.7
20260509235802 84 345 0.0 6.0 0.00 2.00 1.98 71 1009.3
20260509235301 84 263 0.0 7.0 0.00 2.00 1.98 70 1009.4
20260509234801 84 195 2.0 7.0 0.00 2.00 1.98 70 1009.3
20260509234602 83 124 1.0 6.0 0.00 2.00 1.98 69 1009.6
20260509234301 84 243 1.0 6.0 0.00 2.00 1.98 70 1009.3
20260509233801 84 325 1.0 5.0 0.00 2.00 1.98 69 1009.2
20260509233301 84 38 0.0 1.0 0.00 2.00 1.98 70 1009.3
20260509233054 84 0 0.0 7.0 0.00 2.00 1.98 70 1009.5
20260509232801 85 337 0.0 7.0 0.00 2.00 1.98 70 1009.3
20260509232301 85 353 1.0 8.0 0.00 2.00 1.98 70 1009.3
20260509231802 85 243 2.0 8.0 0.00 2.00 1.98 70 1009.1
20260509231609 84 252 1.0 9.0 0.00 2.00 1.98 69 1009.5
20260509231302 85 153 0.0 7.0 0.00 2.00 1.98 70 1009.2
20260509230802 85 143 1.0 6.0 0.00 2.00 1.98 70 1009.2
20260509230302 85 355 0.0 6.0 0.00 2.00 1.98 70 1009.1
20260509230103 85 0 0.0 6.0 0.00 2.00 1.98 70 1009.4
20260509225802 85 338 0.0 6.0 0.00 2.00 1.98 71 1009.1
20260509225305 85 124 2.0 10.0 0.00 2.00 1.98 71 1009.1
20260509225244 85 116 1.0 10.0 0.00 2.00 1.98 71 1009.2
20260509224551 85 0 2.0 9.0 0.00 2.00 1.98 71 1009.5
20260509224303 85 9 4.0 9.0 0.00 2.00 1.98 71 1009.3
20260509223803 86 185 1.0 13.0 0.00 2.00 1.98 71 1009.2
20260509223303 87 186 2.0 13.0 0.00 2.00 1.98 69 1009.2
20260509223051 87 0 0.0 3.0 0.00 2.00 1.98 67 1009.4
20260509222802 87 216 0.0 4.0 0.00 2.00 1.98 67 1009.1
20260509222306 87 90 0.0 4.0 0.00 2.00 1.98 67 1009.0
20260509221755 88 253 0.0 1.0 0.00 2.00 1.98 67 1009.1
20260509221549 88 0 0.0 2.0 0.00 2.00 1.98 66 1009.4
20260509221248 88 272 0.0 2.0 0.00 2.00 1.98 67 1009.2
20260509221003 88 214 0.0 2.0 0.00 2.00 1.98 66 1009.1
20260509220241 89 57 0.0 1.0 0.00 2.00 1.98 66 1009.0
20260509220050 88 0 0.0 1.0 0.00 2.00 1.98 66 1009.4
20260509215738 89 231 0.0 2.0 0.00 2.00 1.98 65 1009.0
20260509215239 89 282 0.0 2.0 0.00 2.00 1.98 66 1009.1
20260509214739 89 62 0.0 1.0 0.00 2.00 1.98 65 1009.2
20260509214545 89 0 0.0 1.0 0.00 2.00 1.98 65 1009.4
20260509214238 90 191 0.0 1.0 0.00 2.00 1.98 65 1009.0
20260509214001 90 288 0.0 0.0 0.00 2.00 1.98 64 1009.0
20260509213502 90 288 0.0 2.0 0.00 2.00 1.98 64 1009.0
20260509213049 90 0 0.0 1.0 0.00 2.00 1.98 63 1009.4
20260509212739 90 288 0.0 2.0 0.00 2.00 1.98 63 1009.1
20260509212232 91 288 0.0 4.0 0.00 2.00 1.98 63 1009.1
20260509211729 91 197 0.0 4.0 0.00 2.00 1.98 63 1009.2
20260509211552 91 0 0.0 4.0 0.00 2.00 1.98 61 1009.5
20260509211230 92 207 0.0 0.0 0.00 2.00 1.98 62 1009.2
20260509210729 92 207 0.0 0.0 0.00 2.00 1.98 64 1009.0
20260509210230 92 207 0.0 0.0 0.00 2.00 1.98 63 1009.1
20260509210105 91 0 0.0 1.0 0.00 2.00 1.98 63 1009.4
20260509205729 91 207 0.0 1.0 0.00 2.00 1.98 63 1009.3
20260509205228 92 205 0.0 1.0 0.00 2.00 1.98 61 1009.2
20260509204948 93 207 0.0 0.0 0.00 2.00 1.98 61 1009.3
20260509204550 92 0 0.0 0.0 0.00 2.00 1.98 62 1009.7
20260509204231 93 21 0.0 0.0 0.00 2.00 1.98 60 1009.4
20260509203730 93 21 0.0 0.0 0.00 2.00 1.98 61 1009.4
20260509203244 92 21 0.0 0.0 0.00 2.00 1.98 62 1009.5
20260509203059 92 0 0.0 1.0 0.00 2.00 1.98 62 1009.8
20260509202730 92 21 0.0 1.0 0.00 2.00 1.98 62 1009.5
20260509202231 92 325 0.0 1.0 0.00 2.00 1.98 61 1009.4
20260509202015 93 114 0.0 0.0 0.00 2.00 1.98 59 1009.5
20260509201557 93 0 0.0 0.0 0.00 2.00 1.98 59 1009.8
20260509201230 93 99 0.0 0.0 0.00 2.00 1.98 59 1009.6
20260509200730 93 99 0.0 1.0 0.00 2.00 1.98 62 1009.7
20260509200231 93 99 0.0 1.0 0.00 2.00 1.98 61 1009.7
20260509200052 92 0 0.0 0.0 0.00 2.00 1.98 62 1010.1
20260509195729 92 196 0.0 0.0 0.00 2.00 1.98 63 1009.7
20260509195229 92 196 0.0 0.0 0.00 2.00 1.98 62 1009.8
20260509194728 92 134 0.0 0.0 0.00 2.00 1.98 61 1009.9
20260509194547 92 0 0.0 1.0 0.00 2.00 1.98 60 1010.2
20260509194230 92 134 0.0 0.0 0.00 2.00 1.98 63 1010.0
20260509193729 91 72 0.0 0.0 0.00 2.00 1.98 63 1010.1
20260509193229 91 72 0.0 0.0 0.00 2.00 1.98 64 1010.3
20260509193053 91 0 0.0 0.0 0.00 2.00 1.98 64 1010.6
20260509192729 91 72 0.0 0.0 0.00 2.00 1.98 64 1010.4
20260509192229 91 72 0.0 0.0 0.00 2.00 1.98 65 1010.4
20260509191729 91 72 0.0 0.0 0.00 2.00 1.98 65 1010.4
20260509191553 90 0 0.0 0.0 0.00 2.00 1.98 65 1010.7
20260509191228 90 72 0.0 0.0 0.00 2.00 1.98 66 1010.4
20260509190726 90 72 0.0 0.0 0.00 2.00 1.98 65 1010.3
20260509190213 89 72 0.0 1.0 0.00 2.00 1.98 65 1010.3
20260509190054 89 0 0.0 1.0 0.00 2.00 1.98 67 1010.6
20260509185930 89 72 0.0 1.0 0.00 2.00 1.98 65 1010.3
20260509185431 90 263 0.0 0.0 0.00 2.00 1.98 64 1010.5
20260509184702 90 263 0.0 0.0 0.00 2.00 1.98 66 1010.5
20260509184556 89 0 0.0 0.0 0.00 2.00 1.98 66 1010.8
20260509184203 89 263 0.0 0.0 0.00 2.00 1.98 65 1010.5
20260509183702 89 263 0.0 0.0 0.00 2.00 1.98 67 1010.6
20260509183202 88 231 0.0 0.0 0.00 2.00 1.98 69 1010.7
20260509183052 87 0 0.0 1.0 0.00 2.00 1.98 68 1011.1
20260509182921 87 231 0.0 0.0 0.00 2.00 1.98 68 1010.9
20260509182202 87 355 0.0 4.0 0.00 2.00 1.98 70 1010.9
20260509181926 87 355 0.0 4.0 0.00 2.00 1.98 69 1011.0
20260509181553 86 0 0.0 4.0 0.00 2.00 1.98 69 1011.2
20260509181202 87 190 0.0 3.0 0.00 2.00 1.98 69 1010.9
20260509180702 87 257 0.0 3.0 0.00 2.00 1.98 72 1010.9
20260509180203 87 127 0.0 3.0 0.00 2.00 1.98 69 1011.0
20260509180100 86 0 0.0 5.0 0.00 2.00 1.98 69 1011.2
20260509175702 86 295 0.0 5.0 0.00 2.00 1.98 72 1011.0
20260509175203 85 77 0.0 5.0 0.00 2.00 1.98 72 1011.1